EW9273 Weather Reports


Display with metric or nautical units.
time (UTC)temp
F
wind
direction
speed
MPH
gust
MPH
rain 1hr
in
rain 24hr
in
rain mn
in
humidity
%
barometer
mb
20260902012048 93 103 3.0 11.0 0.00 0.00 0.00 48 1009.3
20260902011552 93 81 5.0 11.0 0.00 0.00 0.00 47 1009.2
20260902011048 93 80 4.0 9.0 0.00 0.00 0.00 47 1009.2
20260902010546 94 59 4.0 9.0 0.00 0.00 0.00 46 1009.0
20260902010101 94 105 3.0 6.0 0.00 0.00 0.00 44 1008.9
20260902005546 94 58 1.0 3.0 0.00 0.00 0.00 43 1008.9
20260902005046 95 75 1.0 4.0 0.00 0.00 0.00 43 1009.0
20260902004546 95 68 1.0 4.0 0.00 0.00 0.00 43 1008.9
20260902004045 95 88 0.0 4.0 0.00 0.00 0.00 43 1009.0
20260902003545 95 53 2.0 6.0 0.00 0.00 0.00 42 1009.0
20260902003045 95 56 3.0 6.0 0.00 0.00 0.00 42 1009.0
20260902002548 96 70 2.0 6.0 0.00 0.00 0.00 41 1009.1
20260902002045 96 51 3.0 6.0 0.00 0.00 0.00 41 1009.1
20260902001545 96 55 3.0 8.0 0.00 0.00 0.00 41 1009.0
20260902001043 96 62 3.0 8.0 0.00 0.00 0.00 41 1009.0
20260902000544 96 59 3.0 8.0 0.00 0.00 0.00 41 1009.0
20260902000048 96 24 4.0 7.0 0.00 0.00 0.00 40 1009.0
20260901235546 97 65 4.0 8.0 0.00 0.00 0.00 40 1009.1
20260901235042 97 36 3.0 6.0 0.00 0.00 0.00 40 1009.0
20260901234543 97 41 1.0 7.0 0.00 0.00 0.00 40 1009.0
20260901234043 98 44 4.0 15.0 0.00 0.00 0.00 39 1009.0
20260901233543 98 49 4.0 15.0 0.00 0.00 0.00 39 1009.0
20260901233045 99 75 1.0 3.0 0.00 0.00 0.00 38 1009.1
20260901232543 99 130 1.0 4.0 0.00 0.00 0.00 38 1009.1
20260901232042 99 175 1.0 5.0 0.00 0.00 0.00 38 1009.0
20260901231542 98 44 1.0 5.0 0.00 0.00 0.00 38 1009.1
20260901231041 99 145 1.0 5.0 0.00 0.00 0.00 37 1009.1
20260901230541 98 157 0.0 5.0 0.00 0.00 0.00 38 1009.1
20260901230041 98 101 2.0 5.0 0.00 0.00 0.00 38 1009.1
20260901225542 97 313 1.0 6.0 0.00 0.00 0.00 39 1009.2
20260901225042 97 78 1.0 6.0 0.00 0.00 0.00 39 1009.2
20260901224548 97 50 2.0 6.0 0.00 0.00 0.00 39 1009.2
20260901224045 97 76 3.0 6.0 0.00 0.00 0.00 39 1009.2
20260901223539 98 53 2.0 6.0 0.00 0.00 0.00 40 1009.2
20260901223041 98 85 2.0 5.0 0.00 0.00 0.00 39 1009.2
20260901222540 98 86 2.0 8.0 0.00 0.00 0.00 40 1009.2
20260901222039 98 53 1.0 11.0 0.00 0.00 0.00 40 1009.2
20260901221553 99 101 5.0 11.0 0.00 0.00 0.00 38 1009.2
20260901221039 100 46 3.0 6.0 0.00 0.00 0.00 36 1009.1
20260901220538 101 279 2.0 6.0 0.00 0.00 0.00 36 1009.1
20260901220040 99 268 2.0 6.0 0.00 0.00 0.00 37 1009.2
20260901215538 99 20 3.0 6.0 0.00 0.00 0.00 37 1009.2
20260901215037 100 323 2.0 7.0 0.00 0.00 0.00 37 1009.3
20260901214552 98 333 3.0 7.0 0.00 0.00 0.00 38 1009.3
20260901214036 100 23 2.0 8.0 0.00 0.00 0.00 37 1009.3
20260901213536 100 84 3.0 8.0 0.00 0.00 0.00 36 1009.3
20260901213035 100 22 2.0 9.0 0.00 0.00 0.00 37 1009.4
20260901212535 100 5 2.0 5.0 0.00 0.00 0.00 37 1009.5
20260901212035 100 121 2.0 6.0 0.00 0.00 0.00 36 1009.5
20260901211536 101 255 3.0 9.0 0.00 0.00 0.00 35 1009.6
20260901211033 100 250 3.0 9.0 0.00 0.00 0.00 36 1009.6
20260901210532 98 288 1.0 5.0 0.00 0.00 0.00 37 1009.8
20260901210031 100 124 1.0 4.0 0.00 0.00 0.00 36 1009.9
20260901205530 100 101 1.0 7.0 0.00 0.00 0.00 36 1009.9
20260901205030 100 110 1.0 7.0 0.00 0.00 0.00 37 1010.0
20260901204535 98 153 1.0 6.0 0.00 0.00 0.00 36 1010.1
20260901204033 99 223 1.0 6.0 0.00 0.00 0.00 37 1010.2
20260901203529 98 63 2.0 9.0 0.00 0.00 0.00 38 1010.3
20260901203028 98 52 3.0 9.0 0.00 0.00 0.00 38 1010.3
20260901202528 98 65 2.0 5.0 0.00 0.00 0.00 38 1010.4
20260901202027 98 162 1.0 6.0 0.00 0.00 0.00 38 1010.4
20260901201526 99 323 2.0 8.0 0.00 0.00 0.00 38 1010.5
20260901201025 98 85 3.0 8.0 0.00 0.00 0.00 39 1010.6
20260901200524 99 76 1.0 6.0 0.00 0.00 0.00 38 1010.7
20260901200024 99 59 2.0 6.0 0.00 0.00 0.00 37 1010.8
20260901195525 99 311 3.0 6.0 0.00 0.00 0.00 38 1010.8
20260901195021 98 355 1.0 5.0 0.00 0.00 0.00 39 1010.9
20260901194521 99 19 1.0 8.0 0.00 0.00 0.00 38 1011.0
20260901194022 100 318 3.0 8.0 0.00 0.00 0.00 37 1011.0
20260901193521 98 355 1.0 5.0 0.00 0.00 0.00 40 1011.1
20260901193020 96 69 2.0 6.0 0.00 0.00 0.00 40 1011.2
20260901192520 98 85 1.0 10.0 0.00 0.00 0.00 39 1011.2
20260901192019 98 55 5.0 8.0 0.00 0.00 0.00 39 1011.2
20260901191534 99 324 1.0 6.0 0.00 0.00 0.00 37 1011.3
20260901191017 96 279 2.0 6.0 0.00 0.00 0.00 39 1011.3
20260901190520 97 67 2.0 7.0 0.00 0.00 0.00 39 1011.5
20260901190016 98 77 2.0 7.0 0.00 0.00 0.00 39 1011.6
20260901185516 98 157 2.0 6.0 0.00 0.00 0.00 39 1011.7
20260901185014 96 254 3.0 7.0 0.00 0.00 0.00 42 1011.7
20260901184513 96 165 1.0 10.0 0.00 0.00 0.00 42 1011.9
20260901184013 95 169 1.0 5.0 0.00 0.00 0.00 43 1012.0
20260901183512 95 190 3.0 7.0 0.00 0.00 0.00 42 1012.0
20260901183011 95 192 2.0 7.0 0.00 0.00 0.00 42 1012.1
20260901182510 96 94 1.0 8.0 0.00 0.00 0.00 42 1012.2
20260901182010 94 5 1.0 8.0 0.00 0.00 0.00 44 1012.2
20260901181508 94 153 2.0 9.0 0.00 0.00 0.00 44 1012.3
20260901181007 95 61 2.0 9.0 0.00 0.00 0.00 44 1012.4
20260901180507 96 202 0.0 6.0 0.00 0.00 0.00 44 1012.7
20260901180005 95 157 1.0 7.0 0.00 0.00 0.00 46 1012.7
20260901175505 94 55 3.0 8.0 0.00 0.00 0.00 46 1012.8
20260901175003 95 126 1.0 6.0 0.00 0.00 0.00 45 1012.8
20260901174504 95 96 2.0 8.0 0.00 0.00 0.00 43 1012.9
20260901174002 95 9 1.0 6.0 0.00 0.00 0.00 46 1012.9
20260901173501 94 94 2.0 9.0 0.00 0.00 0.00 47 1013.0
20260901173100 93 59 1.0 9.0 0.00 0.00 0.00 47 1013.1
20260901172603 94 67 4.0 7.0 0.00 0.00 0.00 47 1013.1
20260901172058 94 340 1.0 10.0 0.00 0.00 0.00 46 1013.1
20260901171600 94 108 3.0 10.0 0.00 0.00 0.00 47 1013.1
20260901171056 93 171 2.0 5.0 0.00 0.00 0.00 47 1013.2
20260901170555 94 100 3.0 5.0 0.00 0.00 0.00 47 1013.3
20260901170054 93 71 1.0 5.0 0.00 0.00 0.00 47 1013.4
20260901165552 93 150 1.0 6.0 0.00 0.00 0.00 48 1013.5
20260901165053 93 22 1.0 6.0 0.00 0.00 0.00 45 1013.5
20260901164551 93 96 1.0 6.0 0.00 0.00 0.00 47 1013.5
20260901164050 92 88 2.0 6.0 0.00 0.00 0.00 49 1013.4
20260901163548 92 355 2.0 5.0 0.00 0.00 0.00 52 1013.5
20260901163055 92 56 2.0 4.0 0.00 0.00 0.00 54 1013.5
20260901162546 91 67 1.0 5.0 0.00 0.00 0.00 55 1013.6
20260901162044 90 315 2.0 5.0 0.00 0.00 0.00 56 1013.7
20260901161542 90 224 1.0 7.0 0.00 0.00 0.00 54 1013.6
20260901161044 90 148 1.0 7.0 0.00 0.00 0.00 55 1013.7
20260901160539 89 154 3.0 7.0 0.00 0.00 0.00 58 1013.6
20260901160040 89 242 1.0 6.0 0.00 0.00 0.00 58 1013.6
20260901155538 90 248 3.0 5.0 0.00 0.00 0.00 57 1013.7
20260901155037 89 114 1.0 5.0 0.00 0.00 0.00 58 1013.7
20260901154600 89 53 2.0 6.0 0.00 0.00 0.00 60 1013.7
20260901154033 89 88 2.0 6.0 0.00 0.00 0.00 60 1013.6
20260901153535 88 54 1.0 4.0 0.00 0.00 0.00 62 1013.6
20260901153040 87 9 0.0 4.0 0.00 0.00 0.00 62 1013.6
20260901152530 87 51 1.0 4.0 0.00 0.00 0.00 64 1013.7
20260901152028 87 146 2.0 4.0 0.00 0.00 0.00 65 1013.6
20260901151526 87 155 1.0 6.0 0.00 0.00 0.00 66 1013.7
20260901151025 86 62 2.0 6.0 0.00 0.00 0.00 66 1013.6
20260901150523 86 233 1.0 4.0 0.00 0.00 0.00 67 1013.6
20260901150022 85 312 1.0 4.0 0.00 0.00 0.00 68 1013.7
20260901145520 85 268 1.0 4.0 0.00 0.00 0.00 69 1013.8
20260901145020 85 146 1.0 7.0 0.00 0.00 0.00 69 1013.8
20260901144520 85 242 1.0 7.0 0.00 0.00 0.00 68 1013.7
20260901144017 85 201 1.0 4.0 0.00 0.00 0.00 68 1013.7
20260901143516 85 240 1.0 3.0 0.00 0.00 0.00 70 1013.6
20260901143014 84 44 0.0 3.0 0.00 0.00 0.00 71 1013.6
20260901142513 84 173 0.0 4.0 0.00 0.00 0.00 73 1013.6
20260901142011 83 144 1.0 4.0 0.00 0.00 0.00 74 1013.5
20260901141509 83 152 0.0 3.0 0.00 0.00 0.00 75 1013.5
20260901141008 82 152 1.0 4.0 0.00 0.00 0.00 76 1013.5
20260901140507 82 269 1.0 4.0 0.00 0.00 0.00 76 1013.6
20260901140007 82 237 0.0 4.0 0.00 0.00 0.00 77 1013.6
20260901135507 81 162 2.0 4.0 0.00 0.00 0.00 78 1013.6
20260901135003 81 230 0.0 4.0 0.00 0.00 0.00 79 1013.5
20260901134501 81 227 1.0 4.0 0.00 0.00 0.00 79 1013.5
20260901134102 80 132 2.0 4.0 0.00 0.00 0.00 79 1013.5
20260901133559 80 174 0.0 3.0 0.00 0.00 0.00 80 1013.5
20260901133057 80 247 1.0 3.0 0.00 0.00 0.00 81 1013.4
20260901132555 80 234 1.0 3.0 0.00 0.00 0.00 81 1013.5
20260901132055 80 265 0.0 2.0 0.00 0.00 0.00 82 1013.5
20260901131553 80 190 0.0 1.0 0.00 0.00 0.00 82 1013.4
20260901131051 79 190 0.0 2.0 0.00 0.00 0.00 82 1013.4
20260901130549 79 190 0.0 2.0 0.00 0.00 0.00 82 1013.3
20260901130048 79 190 0.0 0.0 0.00 0.00 0.00 83 1013.3
20260901125546 79 190 0.0 0.0 0.00 0.00 0.00 83 1013.1
20260901125145 78 190 0.0 0.0 0.00 0.00 0.00 83 1013.0
20260901124548 78 190 0.0 0.0 0.00 0.00 0.00 83 1013.0
20260901124043 78 190 0.0 0.0 0.00 0.00 0.00 83 1013.0
20260901123541 78 190 0.0 1.0 0.00 0.00 0.00 82 1013.0
20260901123039 78 190 0.0 1.0 0.00 0.00 0.00 82 1012.9
20260901122541 78 190 0.0 1.0 0.00 0.00 0.00 82 1013.0
20260901122041 78 190 0.0 1.0 0.00 0.00 0.00 82 1012.9
20260901121540 78 190 0.0 1.0 0.00 0.00 0.00 82 1012.8
20260901121039 78 190 0.0 1.0 0.00 0.00 0.00 82 1012.8
20260901120539 78 190 0.0 1.0 0.00 0.00 0.00 82 1012.8
20260901120038 78 190 0.0 1.0 0.00 0.00 0.00 81 1012.7
20260901115536 78 190 0.0 1.0 0.00 0.00 0.00 81 1012.7
20260901115035 78 190 0.0 0.0 0.00 0.00 0.00 81 1012.8
20260901114534 78 190 0.0 4.0 0.00 0.00 0.00 81 1012.8
20260901114033 78 190 1.0 4.0 0.00 0.00 0.00 81 1012.8
20260901113533 79 203 0.0 3.0 0.00 0.00 0.00 81 1012.8
20260901113038 79 155 0.0 2.0 0.00 0.00 0.00 81 1013.0
20260901112532 79 155 0.0 2.0 0.00 0.00 0.00 81 1013.0
20260901112032 79 155 0.0 2.0 0.00 0.00 0.00 81 1013.0
20260901111532 79 155 0.0 3.0 0.00 0.00 0.00 81 1013.0
20260901111031 79 155 1.0 3.0 0.00 0.00 0.00 81 1012.9
20260901110531 79 153 0.0 4.0 0.00 0.00 0.00 81 1012.8
20260901110032 79 153 1.0 7.0 0.00 0.00 0.00 81 1012.9
20260901105535 79 148 2.0 7.0 0.00 0.00 0.00 81 1012.9
20260901105031 79 209 0.0 2.0 0.00 0.00 0.00 80 1012.9
20260901104531 79 225 0.0 2.0 0.00 0.00 0.00 81 1012.9
20260901104031 79 154 0.0 1.0 0.00 0.00 0.00 81 1013.0
20260901103532 79 154 0.0 2.0 0.00 0.00 0.00 81 1013.0
20260901103034 79 154 0.0 4.0 0.00 0.00 0.00 81 1012.9
20260901102531 79 238 1.0 4.0 0.00 0.00 0.00 81 1013.0
20260901102031 79 212 0.0 3.0 0.00 0.00 0.00 81 1012.9
20260901101530 79 194 0.0 3.0 0.00 0.00 0.00 81 1012.8
20260901101030 79 187 1.0 2.0 0.00 0.00 0.00 81 1012.7
20260901100534 79 171 0.0 2.0 0.00 0.00 0.00 80 1012.7
20260901100030 79 144 0.0 2.0 0.00 0.00 0.00 80 1012.7
20260901095529 79 136 0.0 4.0 0.00 0.00 0.00 80 1012.7
20260901095031 79 136 1.0 4.0 0.00 0.00 0.00 80 1012.7
20260901094529 79 193 0.0 3.0 0.00 0.00 0.00 80 1012.7
20260901094029 79 193 1.0 3.0 0.00 0.00 0.00 80 1012.7
20260901093532 79 193 0.0 2.0 0.00 0.00 0.00 80 1012.7
20260901093031 79 193 0.0 1.0 0.00 0.00 0.00 80 1012.8
20260901092528 79 193 0.0 2.0 0.00 0.00 0.00 79 1012.9
20260901092028 79 193 0.0 2.0 0.00 0.00 0.00 79 1012.8
20260901091527 79 193 0.0 2.0 0.00 0.00 0.00 79 1012.8
20260901091027 79 193 0.0 2.0 0.00 0.00 0.00 79 1012.9
20260901090529 79 178 0.0 2.0 0.00 0.00 0.00 79 1012.9
20260901090027 79 178 0.0 2.0 0.00 0.00 0.00 79 1013.0
20260901085525 79 178 0.0 2.0 0.00 0.00 0.00 79 1013.0
20260901085025 79 178 0.0 2.0 0.00 0.00 0.00 78 1013.0
20260901084525 80 178 0.0 3.0 0.00 0.00 0.00 78 1013.0
20260901084026 80 211 1.0 5.0 0.00 0.00 0.00 78 1013.0
20260901083529 80 148 2.0 4.0 0.00 0.00 0.00 78 1012.9
20260901083025 80 140 1.0 3.0 0.00 0.00 0.00 78 1013.0
20260901082526 80 189 0.0 4.0 0.00 0.00 0.00 78 1013.0
20260901082024 80 189 0.0 4.0 0.00 0.00 0.00 78 1013.0
20260901081522 80 146 0.0 3.0 0.00 0.00 0.00 77 1012.9
20260901081026 80 146 1.0 5.0 0.00 0.00 0.00 77 1012.9
20260901080522 80 146 1.0 5.0 0.00 0.00 0.00 77 1012.9
20260901080035 80 123 0.0 3.0 0.00 0.00 0.00 77 1012.9
20260901075521 80 161 0.0 2.0 0.00 0.00 0.00 77 1013.0
20260901075024 80 182 0.0 4.0 0.00 0.00 0.00 77 1012.9
20260901074521 80 171 2.0 4.0 0.00 0.00 0.00 77 1012.9
20260901074021 80 165 1.0 4.0 0.00 0.00 0.00 77 1012.9
20260901073521 80 154 2.0 4.0 0.00 0.00 0.00 76 1012.8
20260901073020 80 168 2.0 4.0 0.00 0.00 0.00 76 1012.8
20260901072522 80 180 0.0 4.0 0.00 0.00 0.00 76 1012.9
20260901072022 80 155 2.0 5.0 0.00 0.00 0.00 76 1012.9
20260901071519 80 138 1.0 5.0 0.00 0.00 0.00 75 1013.0
20260901071017 80 170 1.0 5.0 0.00 0.00 0.00 75 1013.0
20260901070520 81 149 2.0 4.0 0.00 0.00 0.00 75 1012.9
20260901070020 81 163 1.0 3.0 0.00 0.00 0.00 74 1013.0
20260901065617 81 97 0.0 6.0 0.00 0.00 0.00 74 1013.0
20260901065017 81 139 2.0 6.0 0.00 0.00 0.00 74 1012.9
20260901064520 81 155 1.0 5.0 0.00 0.00 0.00 73 1012.9
20260901064016 81 147 1.0 7.0 0.00 0.00 0.00 73 1012.8
20260901063515 81 114 1.0 7.0 0.00 0.00 0.00 72 1012.9
20260901063029 81 146 1.0 4.0 0.00 0.00 0.00 72 1012.9
20260901062513 81 158 1.0 3.0 0.00 0.00 0.00 71 1012.9
20260901062014 82 147 0.0 4.0 0.00 0.00 0.00 71 1012.9
20260901061512 82 169 0.0 4.0 0.00 0.00 0.00 71 1012.9
20260901061011 82 86 0.0 4.0 0.00 0.00 0.00 70 1012.9
20260901060511 82 142 2.0 4.0 0.00 0.00 0.00 70 1012.8
20260901060010 82 168 0.0 6.0 0.00 0.00 0.00 70 1012.7
20260901055509 82 138 1.0 6.0 0.00 0.00 0.00 70 1012.6
20260901055011 82 143 1.0 3.0 0.00 0.00 0.00 69 1012.6
20260901054508 82 101 1.0 5.0 0.00 0.00 0.00 69 1012.6
20260901054008 82 85 1.0 5.0 0.00 0.00 0.00 69 1012.5
20260901053509 83 134 1.0 3.0 0.00 0.00 0.00 68 1012.5
20260901053004 83 112 0.0 4.0 0.00 0.00 0.00 68 1012.4
20260901052504 83 17 0.0 3.0 0.00 0.00 0.00 68 1012.4
20260901052005 83 36 1.0 3.0 0.00 0.00 0.00 67 1012.5
20260901051502 83 162 1.0 5.0 0.00 0.00 0.00 67 1012.5
20260901051001 83 65 1.0 7.0 0.00 0.00 0.00 66 1012.5
20260901050600 83 159 1.0 7.0 0.00 0.00 0.00 66 1012.4
20260901050100 83 94 1.0 8.0 0.00 0.00 0.00 66 1012.3
20260901045559 84 85 0.0 4.0 0.00 0.00 0.00 67 1012.3
20260901045500 84 85 1.0 4.0 0.00 0.00 0.00 66 1012.3
20260901045100 84 58 1.0 6.0 0.00 0.00 0.00 66 1012.3
20260901044603 84 140 2.0 8.0 0.00 0.00 0.00 66 1012.0
20260901044058 84 112 3.0 10.0 0.00 0.00 0.00 65 1012.0
20260901043558 84 176 3.0 11.0 0.00 0.00 0.00 65 1012.1
20260901043058 85 104 3.0 11.0 0.00 0.00 0.00 65 1012.0
20260901042557 85 147 3.0 11.0 0.00 0.00 0.00 64 1012.0
20260901042058 85 26 1.0 7.0 0.00 0.00 0.00 63 1012.0
20260901041559 85 142 3.0 8.0 0.00 0.00 0.00 63 1012.1
20260901041056 85 134 2.0 8.0 0.00 0.00 0.00 63 1012.0
20260901040556 85 173 2.0 5.0 0.00 0.00 0.00 62 1012.1
20260901040056 86 162 1.0 10.0 0.00 0.00 0.00 62 1012.1
20260901035557 86 167 3.0 10.0 0.00 0.00 0.00 62 1012.1
20260901035056 86 104 4.0 9.0 0.00 0.00 0.00 61 1012.0
20260901034556 86 70 4.0 8.0 0.00 0.00 0.00 61 1012.0
20260901034055 86 107 3.0 11.0 0.00 0.00 0.00 60 1012.0
20260901033555 87 63 4.0 16.0 0.00 0.00 0.00 60 1011.9
20260901033056 87 173 4.0 16.0 0.00 0.00 0.00 60 1011.9
20260901032555 87 159 4.0 15.0 0.00 0.00 0.00 59 1011.9
20260901032055 87 126 3.0 10.0 0.00 0.00 0.00 59 1011.7
20260901031555 88 103 3.0 11.0 0.00 0.00 0.00 58 1011.7
20260901031054 88 152 3.0 8.0 0.00 0.00 0.00 58 1011.6
20260901030555 88 167 3.0 10.0 0.00 0.00 0.00 57 1011.5
20260901030055 88 175 2.0 11.0 0.00 0.00 0.00 57 1011.4
20260901025555 88 140 3.0 11.0 0.00 0.00 0.00 56 1011.3
20260901025055 89 149 2.0 9.0 0.00 0.00 0.00 55 1011.2
20260901024554 89 125 2.0 11.0 0.00 0.00 0.00 55 1011.1
20260901024055 89 167 3.0 11.0 0.00 0.00 0.00 54 1011.0
20260901023554 89 90 3.0 8.0 0.00 0.00 0.00 54 1010.9
20260901023054 89 86 3.0 8.0 0.00 0.00 0.00 53 1010.8
20260901022553 90 113 3.0 10.0 0.00 0.00 0.00 53 1010.8
20260901022053 90 114 2.0 10.0 0.00 0.00 0.00 53 1010.7
20260901021553 90 171 3.0 9.0 0.00 0.00 0.00 53 1010.7
20260901021053 90 109 4.0 7.0 0.00 0.00 0.00 53 1010.6
20260901020553 90 28 2.0 7.0 0.00 0.00 0.00 53 1010.6
20260901020055 90 97 2.0 6.0 0.00 0.00 0.00 53 1010.5
20260901015552 90 92 1.0 7.0 0.00 0.00 0.00 53 1010.4
20260901015053 90 107 1.0 8.0 0.00 0.00 0.00 53 1010.4
20260901014554 91 107 2.0 8.0 0.00 0.00 0.00 52 1010.3
20260901014052 91 61 2.0 9.0 0.00 0.00 0.00 52 1010.2
20260901013554 91 76 2.0 9.0 0.00 0.00 0.00 52 1010.2
20260901013102 91 119 3.0 11.0 0.00 0.00 0.00 52 1010.1
20260901012552 91 110 4.0 13.0 0.00 0.00 0.00 51 1010.0